Date_and_time,latitude,longitude,wind_speed,RelWindDirFrom,WindDirFrom,air_pressure,air_temperature,relative_humidity,Temp,platform_speed_wrt_ground,air_pressure_at_mean_sea_level,platform_orientation
2019-09-20 00:00,53.3909416666667,-98.4536933333333,9.4,11.7,127,989.37,13.8,76,16.41,1.5,1015.91,310.9
2019-09-20 00:10,53.3908866666667,-98.4539833333333,6.8,8.2,140,989.54,13.7,76,16.32,0.1,1016.09,310.9
2019-09-20 00:20,53.3914666666667,-98.4547316666667,7.3,8.5,146,989.50,13.8,76,16.02,0.3,1016.03,310.9
2019-09-20 00:30,53.3807416666667,-98.4113166666667,16.5,18.8,121,989.10,13.8,77,16.07,10.1,1015.61,310.9
2019-09-20 00:40,53.3740066666667,-98.3852733333333,11.3,17.3,121,989.26,13.7,77,16.26,6.1,1015.77,310.9
2019-09-20 00:50,53.37419,-98.3856716666667,5.8,7.3,126,989.44,13.7,75,16.27,0.1,1015.98,310.9
2019-09-20 01:00,53.3741916666667,-98.3856783333333,6.6,7.7,129,989.40,13.8,74,16.26,0.0,1015.93,326.0
2019-09-20 01:10,53.3743783333333,-98.385925,7.3,8.5,127,989.36,13.9,74,16.23,0.1,1015.89,326.0
2019-09-20 01:20,53.3743683333333,-98.38586,8.6,10.3,136,989.40,13.9,71,16.21,0.0,1015.93,326.0
2019-09-20 01:30,53.3743566666667,-98.3859366666667,9.9,11.2,133,989.31,14.1,70,16.19,0.0,1015.83,326.0
2019-09-20 01:40,53.3743966666667,-98.3858083333333,10.0,10.8,137,989.35,14.1,68,16.17,0.0,1015.88,326.0
2019-09-20 01:50,53.3743666666667,-98.38594,10.5,12.0,136,989.27,14.2,68,16.15,0.0,1015.80,326.0
2019-09-20 02:00,53.3743666666667,-98.3859083333333,10.3,12.0,139,989.34,14.1,68,16.12,0.0,1015.87,110.0
2019-09-20 02:10,53.3743633333333,-98.3858733333333,9.5,11.2,138,989.42,14.1,69,16.09,0.0,1015.95,110.0
2019-09-20 02:20,53.3743683333333,-98.3859383333333,8.8,11.0,138,989.41,14.1,71,16.06,0.0,1015.95,110.0
2019-09-20 02:30,53.374365,-98.3858716666667,9.6,11.2,139,989.39,14.2,71,16.03,0.0,1015.93,110.0
2019-09-20 02:40,53.37438,-98.3858483333333,8.6,9.9,141,989.47,14.2,72,16.01,0.0,1016.01,110.0
2019-09-20 02:50,53.37439,-98.38585,8.8,9.9,141,989.44,14.2,73,15.98,0.0,1015.97,110.0
2019-09-20 03:00,53.3743516666667,-98.385895,8.3,9.9,138,989.40,14.3,74,15.97,0.0,1015.92,112.3
2019-09-20 03:10,53.374365,-98.385885,8.8,9.9,136,989.28,14.3,75,15.97,0.0,1015.79,112.3
2019-09-20 03:20,53.3743716666667,-98.3858783333333,9.2,10.7,137,989.28,14.4,76,15.96,0.0,1015.79,112.3
2019-09-20 03:30,53.3743483333333,-98.3859433333333,10.1,11.5,138,989.16,14.4,76,15.97,0.0,1015.66,112.3
2019-09-20 03:40,53.374375,-98.3858433333333,11.6,13.2,144,989.13,14.5,77,15.98,0.0,1015.62,112.3
2019-09-20 03:50,53.374405,-98.3857966666667,11.5,13.5,146,989.15,14.6,79,15.98,0.0,1015.64,112.3
2019-09-20 04:00,53.3743933333333,-98.3857733333333,12.0,13.5,147,989.07,14.7,81,15.97,0.0,1015.56,349.8
2019-09-20 04:10,53.3744166666667,-98.3857733333333,12.5,14.7,148,989.08,14.7,80,15.96,0.0,1015.57,349.8
2019-09-20 04:20,53.3744383333333,-98.385845,13.0,15.0,152,989.08,14.8,79,15.95,0.0,1015.56,349.8
2019-09-20 04:30,53.3744016666667,-98.3859433333333,12.9,14.5,149,989.05,14.8,80,15.94,0.0,1015.53,349.8
2019-09-20 04:40,53.3744166666667,-98.3858933333333,12.7,14.8,151,989.06,14.9,80,15.93,0.0,1015.54,349.8
2019-09-20 04:50,53.3744316666667,-98.3858666666667,13.5,15.4,153,988.98,14.9,81,15.93,0.0,1015.44,349.8
2019-09-20 05:00,53.3744883333333,-98.3857866666667,13.1,15.6,149,988.91,15.0,83,15.90,0.0,1015.37,28.4
2019-09-20 05:10,53.3744683333333,-98.3857583333333,13.8,16.0,148,988.81,15.0,84,15.87,0.0,1015.27,28.4
2019-09-20 05:20,53.3744733333333,-98.385825,13.6,15.5,148,988.79,15.0,86,15.86,0.0,1015.24,28.4
2019-09-20 05:30,53.3744566666667,-98.3859016666667,13.7,15.7,144,988.65,14.9,87,15.88,0.0,1015.10,28.4
2019-09-20 05:40,53.3744283333333,-98.3860066666667,14.8,17.2,143,988.58,14.8,85,15.90,0.0,1015.02,28.4
2019-09-20 05:50,53.374455,-98.3860166666667,14.3,16.8,142,988.59,14.9,83,15.90,0.0,1015.03,28.4
2019-09-20 06:00,53.3744183333333,-98.3860783333333,13.7,15.5,136,988.46,14.8,84,15.90,0.0,1014.89,303.0
2019-09-20 06:10,53.3744483333333,-98.3859916666667,15.0,17.0,134,988.36,14.8,84,15.88,0.0,1014.79,303.0
2019-09-20 06:20,53.3744816666667,-98.3859416666667,14.9,17.1,135,988.28,14.8,84,15.86,0.0,1014.71,303.0
2019-09-20 06:30,53.37449,-98.38592,13.7,15.8,136,988.45,14.9,86,15.85,0.0,1014.88,303.0
2019-09-20 06:40,53.374505,-98.38584,15.0,17.5,140,988.47,14.9,86,15.83,0.0,1014.89,303.0
2019-09-20 06:50,53.3744933333333,-98.3858983333333,14.4,17.2,141,988.58,15.0,88,15.83,0.0,1014.99,303.0
2019-09-20 07:00,53.3744916666667,-98.3859883333333,15.3,17.3,141,988.64,15.0,88,15.81,0.0,1015.06,307.3
2019-09-20 07:10,53.3744966666667,-98.3859683333333,15.0,17.5,146,989.02,15.0,89,15.79,0.0,1015.45,307.3
2019-09-20 07:20,53.37452,-98.3859,14.4,16.4,147,989.00,15.0,91,15.79,0.0,1015.43,307.3
2019-09-20 07:30,53.3745033333333,-98.385875,14.1,15.8,142,988.74,15.1,93,15.79,0.0,1015.16,307.3
2019-09-20 07:40,53.374465,-98.3860266666667,14.0,16.8,142,988.50,15.1,93,15.79,0.0,1014.92,307.3
2019-09-20 07:50,53.374455,-98.3861,14.2,16.3,141,988.32,15.1,93,15.78,0.0,1014.73,307.3
2019-09-20 08:00,53.3744683333333,-98.386015,15.0,17.8,140,988.08,15.1,94,15.78,0.0,1014.49,260.3
2019-09-20 08:10,53.374475,-98.385965,15.6,17.9,139,987.89,15.1,93,15.78,0.0,1014.29,260.3
2019-09-20 08:20,53.3744483333333,-98.3861166666667,15.8,17.9,138,987.67,15.1,93,15.77,0.0,1014.06,260.3
2019-09-20 08:30,53.3744766666667,-98.3860216666667,16.3,19.6,138,987.40,15.1,92,15.76,0.0,1013.78,260.3
2019-09-20 08:40,53.374515,-98.3859833333333,16.2,19.1,136,987.13,15.1,94,15.76,0.0,1013.50,260.3
2019-09-20 08:50,53.3744216666667,-98.38616,16.6,20.1,133,986.87,15.1,94,15.76,0.1,1013.24,260.3
2019-09-20 09:00,53.3745133333333,-98.3859933333333,17.5,20.9,133,986.75,15.0,95,15.75,0.0,1013.12,32.1
2019-09-20 09:10,53.3744933333333,-98.3860916666667,17.4,20.6,130,986.40,14.9,95,15.75,0.0,1012.76,32.1
2019-09-20 09:20,53.3745133333333,-98.386055,17.9,20.6,127,985.95,14.8,96,15.75,0.0,1012.30,32.1
2019-09-20 09:30,53.3745416666667,-98.3860516666667,18.2,21.6,133,986.12,14.7,97,15.76,0.0,1012.47,32.1
2019-09-20 09:40,53.374535,-98.3861266666667,18.8,22.6,136,986.21,14.6,97,15.76,0.0,1012.57,32.1
2019-09-20 09:50,53.3745816666667,-98.3860083333333,18.8,22.7,135,986.29,14.6,98,15.76,0.0,1012.66,32.1
2019-09-20 10:00,53.3745266666667,-98.3861516666667,18.0,21.6,135,986.35,14.5,99,15.75,0.0,1012.73,288.6
2019-09-20 10:10,53.3745833333333,-98.3860183333333,17.6,19.8,134,986.26,14.6,99,15.75,0.0,1012.63,288.6
2019-09-20 10:20,53.374555,-98.386135,17.0,19.5,136,986.27,14.6,99,15.76,0.0,1012.63,288.6
2019-09-20 10:30,53.3746066666667,-98.3860366666667,17.6,20.9,135,986.09,14.7,99,15.78,0.0,1012.44,288.6
2019-09-20 10:40,53.3745683333333,-98.3861666666667,17.1,19.8,134,985.88,14.6,99,15.79,0.0,1012.23,288.6
2019-09-20 10:50,53.3746283333333,-98.3860216666667,17.3,20.1,137,985.87,14.7,99,15.80,0.0,1012.23,288.6
2019-09-20 11:00,53.3746333333333,-98.3860683333333,16.9,20.2,136,985.76,14.7,99,15.81,0.0,1012.12,343.5
2019-09-20 11:10,53.3746,-98.3861333333333,17.9,20.0,138,985.66,14.7,99,15.80,0.0,1012.02,343.5
2019-09-20 11:20,53.374585,-98.3861766666667,16.9,19.3,137,985.50,14.8,99,15.78,0.0,1011.86,343.5
2019-09-20 11:30,53.3746116666667,-98.3861783333333,16.9,20.3,138,985.20,14.9,99,15.75,0.0,1011.54,343.5
2019-09-20 11:40,53.3746816666667,-98.3860116666667,18.9,22.4,140,984.62,15.0,99,15.73,0.0,1010.95,343.5
2019-09-20 11:50,53.37459,-98.38624,18.9,21.6,138,984.24,14.9,99,15.71,0.1,1010.56,343.5
2019-09-20 12:00,53.3746383333333,-98.3861166666667,18.7,21.8,133,983.97,14.9,99,15.73,0.0,1010.29,334.3
2019-09-20 12:10,53.3746533333333,-98.3862,19.5,23.2,134,983.71,14.9,99,15.75,0.0,1010.02,334.3
2019-09-20 12:20,53.3746633333333,-98.3862066666667,21.7,25.2,135,983.33,14.9,99,15.75,0.0,1009.62,334.3
2019-09-20 12:30,53.3746566666667,-98.3863116666667,22.7,26.2,136,982.92,14.8,100,15.75,0.0,1009.20,334.3
2019-09-20 12:40,53.3747566666667,-98.3863566666667,24.1,28.3,137,982.36,14.8,100,15.75,0.0,1008.63,334.3
2019-09-20 12:50,53.3747983333333,-98.3863566666667,25.8,32.1,138,981.76,14.8,100,15.74,0.0,1008.01,334.3
2019-09-20 13:00,53.3754733333333,-98.38411,25.4,32.1,134,981.17,14.9,100,15.74,0.5,1007.40,52.3
2019-09-20 13:10,53.3686666666667,-98.3712133333333,28.8,37.9,131,979.91,14.9,100,15.73,3.7,1006.11,52.3
2019-09-20 13:20,53.3548966666667,-98.3363683333333,33.1,41.7,131,979.33,14.9,100,15.73,9.0,1005.51,52.3
2019-09-20 13:30,53.3400533333333,-98.2974683333333,36.6,41.9,130,978.58,14.9,100,15.73,9.9,1004.73,52.3
2019-09-20 13:40,53.3253516666667,-98.258225,37.8,43.0,131,978.26,14.8,100,15.75,10.0,1004.41,52.3
2019-09-20 13:50,53.31136,-98.2188966666667,40.2,46.9,133,977.51,14.7,100,15.74,9.8,1003.65,52.3
2019-09-20 14:00,53.302415,-98.1941133333333,37.7,48.8,133,977.13,14.6,100,15.73,6.2,1003.27,122.1
2019-09-20 14:10,53.28814,-98.15815,41.9,48.8,135,976.31,14.5,100,15.74,9.3,1002.43,122.1
2019-09-20 14:20,53.27648,-98.12342,40.6,47.4,139,977.17,14.5,100,15.72,8.6,1003.32,122.1
2019-09-20 14:30,53.2673766666667,-98.0981033333333,36.8,43.9,140,977.67,14.5,101,15.70,6.4,1003.82,122.1
2019-09-20 14:40,53.2627516666667,-98.0654733333333,32.2,39.9,140,978.69,15.0,100,15.66,7.2,1004.85,122.1
2019-09-20 14:50,53.2584766666667,-98.0310116666667,31.9,40.1,137,978.66,15.2,100,15.57,7.6,1004.80,122.1
2019-09-20 15:00,53.25348,-97.99594,28.3,33.4,132,979.00,15.2,100,15.50,7.8,1005.16,117.3
2019-09-20 15:10,53.24787,-97.96001,27.5,32.0,120,978.44,15.4,100,15.52,8.0,1004.56,117.3
2019-09-20 15:20,53.2407516666667,-97.91962,25.3,29.4,126,979.31,15.6,100,15.55,9.1,1005.46,117.3
2019-09-20 15:30,53.2327633333333,-97.8730783333333,24.6,28.7,128,979.45,15.6,100,15.51,10.4,1005.60,117.3
2019-09-20 15:40,53.2206,-97.8361116666667,22.2,25.7,137,979.91,15.8,100,15.47,9.1,1006.07,117.3
2019-09-20 15:50,53.2169033333333,-97.7910766666667,21.3,27.3,136,979.99,16.2,100,15.41,9.8,1006.14,117.3
2019-09-20 16:00,53.2126683333333,-97.74365,20.2,25.7,144,980.34,16.5,99,15.39,10.3,1006.49,112.8
2019-09-20 16:10,53.2076716666667,-97.6949333333333,19.6,26.9,137,980.58,16.9,97,15.38,10.7,1006.72,112.8
2019-09-20 16:20,53.2022233333333,-97.645895,18.7,24.0,121,980.67,17.0,95,15.34,10.8,1006.80,112.8
2019-09-20 16:30,53.19949,-97.63483,10.6,20.9,136,981.04,17.0,93,15.33,2.6,1007.16,112.8
2019-09-20 16:40,53.199515,-97.63452,3.1,7.6,163,981.57,17.1,93,15.35,0.1,1007.68,112.8
2019-09-20 16:50,53.199495,-97.6345633333333,4.4,6.7,356,981.36,19.2,78,15.36,0.0,1007.39,112.8
2019-09-20 17:00,53.19869,-97.6361983333333,3.1,5.2,349,981.28,19.4,79,15.36,0.5,1007.28,107.0
2019-09-20 17:10,53.19764,-97.6478933333333,4.4,5.8,281,981.36,17.7,89,15.36,2.5,1007.43,107.0
2019-09-20 17:20,53.1956983333333,-97.65765,7.0,8.7,303,981.45,16.5,98,15.35,2.2,1007.58,107.0
2019-09-20 17:30,53.1943416666667,-97.6680666666667,5.2,6.2,303,981.70,15.8,100,15.32,2.3,1007.86,107.0
2019-09-20 17:40,53.191175,-97.6910016666667,4.9,9.3,263,981.72,15.9,100,15.32,5.1,1007.85,107.0
2019-09-20 17:50,53.1850233333333,-97.739455,9.8,11.7,239,981.57,16.2,99,15.41,10.7,1007.67,107.0
2019-09-20 18:00,53.1796333333333,-97.7804833333333,7.5,11.1,207,981.60,16.4,99,15.55,9.1,1007.68,119.7
2019-09-20 18:10,53.1777266666667,-97.79183,5.5,6.7,143,981.67,16.2,99,15.60,2.5,1007.75,119.7
2019-09-20 18:20,53.17568,-97.8034883333333,6.1,7.1,131,981.34,16.2,99,15.63,2.6,1007.42,119.7
2019-09-20 18:30,53.1738316666667,-97.814965,6.9,8.6,126,981.13,16.3,99,15.67,2.6,1007.19,119.7
2019-09-20 18:40,53.171115,-97.8268866666667,7.3,9.5,130,980.80,16.4,99,15.71,2.8,1006.75,119.7
2019-09-20 18:50,53.169865,-97.8378033333333,7.4,10.8,132,980.74,16.5,99,15.78,2.4,1006.68,119.7
2019-09-20 19:00,53.1699783333333,-97.837775,9.2,10.6,119,980.48,16.8,97,15.76,0.0,1006.47,232.9
2019-09-20 19:10,53.1700066666667,-97.8376433333333,8.4,9.9,121,980.45,16.8,98,15.69,0.0,1006.50,232.9
2019-09-20 19:20,53.1699783333333,-97.8377366666667,9.1,10.2,118,980.41,16.7,99,15.70,0.0,1006.49,232.9
2019-09-20 19:30,53.1699066666667,-97.8376483333333,10.0,12.3,118,980.23,16.7,99,15.68,0.0,1006.31,232.9
2019-09-20 19:40,53.1908333333333,-97.84108,7.6,15.0,84,980.21,16.7,99,15.72,7.6,1006.26,232.9
2019-09-20 19:50,53.220905,-97.8500883333333,9.1,11.7,64,980.16,16.5,100,15.74,11.0,1006.21,232.9
2019-09-20 20:00,53.2510983333333,-97.8588716666667,9.4,11.7,72,979.82,16.6,99,15.71,11.0,1005.87,291.6
2019-09-20 20:10,53.28127,-97.867895,9.2,11.8,77,979.65,16.6,99,15.65,11.0,1005.70,291.6
2019-09-20 20:20,53.311535,-97.877525,9.1,11.6,81,979.62,16.6,99,15.58,11.1,1005.67,291.6
2019-09-20 20:30,53.341845,-97.8864716666667,8.8,11.9,92,979.63,16.6,99,15.50,11.1,1005.67,291.6
2019-09-20 20:40,53.3722266666667,-97.89547,8.9,11.5,96,979.60,16.6,99,15.52,11.1,1005.64,291.6
2019-09-20 20:50,53.38522,-97.899975,11.8,15.7,134,979.55,18.0,87,15.48,4.8,1005.50,291.6
2019-09-20 21:00,53.3930583333333,-97.9023316666667,13.5,15.7,141,979.43,19.4,79,15.45,2.9,1005.32,341.2
2019-09-20 21:10,53.400665,-97.90461,13.0,15.4,141,979.30,19.4,79,15.41,2.8,1005.19,341.2
2019-09-20 21:20,53.4105516666667,-97.90853,11.8,14.8,137,979.22,19.5,80,15.39,3.7,1005.10,341.2
2019-09-20 21:30,53.4128416666667,-97.9078633333333,14.6,16.6,136,978.83,17.1,96,15.38,0.8,1004.81,341.2
2019-09-20 21:40,53.4128216666667,-97.9079766666667,14.5,16.4,137,978.73,16.5,99,15.37,0.0,1004.75,341.2
2019-09-20 21:50,53.4127983333333,-97.90805,15.6,17.9,138,978.60,16.5,99,15.35,0.0,1004.60,341.2
2019-09-20 22:00,53.4306583333333,-97.9135216666667,10.4,18.4,139,979.14,17.0,97,15.36,6.5,1005.14,350.2
2019-09-20 22:10,53.4611883333333,-97.9212116666667,5.7,10.2,127,979.09,17.3,96,15.40,11.1,1005.07,350.2
2019-09-20 22:20,53.491475,-97.932535,4.0,7.2,136,979.12,17.4,95,15.39,11.2,1005.10,350.2
2019-09-20 22:30,53.52199,-97.94024,5.1,9.9,138,979.08,17.5,95,15.35,11.1,1005.05,350.2
2019-09-20 22:40,53.55259,-97.9476916666667,5.4,8.9,146,979.32,17.9,91,15.34,11.1,1005.22,350.2
2019-09-20 22:50,53.5817366666667,-97.9560933333333,5.2,10.7,166,979.31,18.2,88,15.31,10.6,1005.13,350.2
2019-09-20 23:00,53.590695,-97.9594983333333,13.0,16.1,176,979.11,16.9,98,15.31,3.3,1004.99,350.0
2019-09-20 23:10,53.5987616666667,-97.9633166666667,14.5,17.3,187,979.25,15.9,100,15.27,3.0,1005.17,350.0
2019-09-20 23:20,53.6071166666667,-97.9657583333333,15.7,18.7,192,979.18,15.8,100,15.26,3.1,1005.21,350.0
2019-09-20 23:30,53.6166916666667,-97.9664916666667,14.0,18.4,194,979.17,16.2,100,15.26,3.5,1005.21,350.0
